[[{"header":{"parameterUnit":"m.s-1","parameterCategory":1,"la1":30.2991,"la2":30.254,"lo1":-89.0895,"lo2":-89.0444,"dy":0.0017,"dx":0.0017,"nx":28,"ny":28,"refTime":"2024-04-15T03:00:00:Z","depth":0,"parameterNumber":2,"parameterNumberName":"U-component_of_WINDS"},"data":[0,0,0,0,0,0,0,0,0,0,0,0,0,0,0,0,0,0,0,0,0,0,0,0,0,0,0,0,0,0,0,0,0,0,0,0,0,0,0,0,0,0,0,0,0,0,0,0,0,0,0,0,0,0,0,0,0,0,-5.7038,-5.7038,0,-5.7056,-5.7056,-5.7056,-5.6984,-5.6982,-5.698,-5.6978,-5.6993,-5.6995,-5.6998,0,0,0,0,0,0,0,0,0,0,0,0,0,-5.6941,-5.6944,-5.7038,-5.7038,-5.7039,-5.7055,-5.7056,-5.7056,-5.6984,-5.6982,-5.6979,-5.6977,-5.6992,-5.6995,-5.6998,0,0,0,0,0,0,0,0,0,0,0,0,0,-5.6974,-5.6944,-5.7038,-5.7005,-5.7002,-5.7055,-5.7056,-5.7056,-5.6985,-5.6982,-5.6979,-5.6976,-5.6991,-5.6995,-5.6998,-5.7083,0,0,-5.7009,-5.7011,0,0,0,0,0,0,0,0,-5.6972,-5.6977,-5.701,-5.7007,-5.7004,-5.7014,-5.7027,-5.7065,-5.6986,-5.6992,-5.6978,-5.6974,-5.7003,-5.7005,-5.7015,-5.7084,-5.7084,-5.7009,-5.7011,-5.7013,-5.7014,0,0,0,0,0,0,0,-5.697,-5.6976,-5.7045,-5.701,-5.7007,-5.6989,-5.699,-5.7034,-5.7014,-5.6991,-5.6986,-5.6989,-5.7,-5.7012,-5.7015,-5.7085,-5.7009,-5.7012,-5.7015,-5.7016,-5.7224,-5.7227,0,0,0,0,0,0,-5.6972,-5.6975,-5.7044,-5.7045,-5.698,-5.6993,-5.6994,-5.7014,-5.7014,-5.7011,-5.6991,-5.6985,-5.7007,-5.7011,-5.7015,-5.7113,-5.7013,-5.7016,-5.7018,-5.722,-5.7224,-5.7228,0,0,0,0,0,0,-5.697,-5.6979,-5.7044,-5.7009,-5.7016,-5.6998,-5.7021,-5.7016,-5.7027,-5.7014,-5.701,-5.7007,-5.7005,-5.701,-5.7067,-5.7112,-5.7018,-5.7021,-5.7216,-5.7222,-5.7226,-5.731,0,0,0,0,0,0,-5.6968,-5.6979,-5.7011,-5.701,-5.7018,-5.7096,-5.7024,-5.7019,-5.7034,-5.7026,-5.7027,-5.7025,-5.7003,-5.7062,-5.707,-5.7116,-5.7024,-5.7212,-5.7219,-5.7225,-5.7303,-5.7318,-5.733,0,0,0,0,0,-5.6965,-5.7034,-5.7013,-5.7022,-5.7058,-5.7098,-5.7103,-5.7077,-5.7038,-5.707,-5.7062,-5.7024,-5.7107,-5.7068,-5.7077,-5.7124,-5.7209,-5.7217,-5.7224,-5.7297,-5.7315,-5.733,0,0,0,0,0,0,-5.7039,-5.7033,-5.701,-5.7081,-5.7091,-5.7086,-5.7125,-5.7097,-5.7117,-5.7109,-5.7075,-5.7076,-5.7138,-5.7138,-5.7094,-5.7206,-5.7151,-5.7161,-5.7204,-5.722,-5.7234,-5.7231,-5.7027,0,0,0,0,0,-5.7064,-5.7098,-5.7091,-5.7154,-5.716,-5.7143,-5.7159,-5.7139,-5.7148,-5.7151,-5.7147,-5.7156,-5.7184,-5.7203,-5.7228,-5.7305,-5.7303,-5.7342,-5.7355,-5.7366,-5.7373,-5.7413,-5.7429,-5.7253,-5.7253,-5.7253,0,0,-5.7115,-5.7116,-5.7139,-5.7169,-5.7174,-5.7209,-5.7146,-5.7186,-5.7212,-5.7157,-5.7209,-5.7208,-5.7216,-5.7283,-5.7312,-5.7284,-5.7423,-5.7376,-5.7385,-5.7386,-5.7422,-5.7439,-5.7454,-5.7258,-5.7257,-5.7257,0,0,-5.7225,-5.723,-5.7283,-5.729,-5.73,-5.7288,-5.7301,-5.7302,-5.7298,-5.7351,-5.7311,-5.7341,-5.739,-5.7397,-5.7407,-5.7524,-5.749,-5.7533,-5.7601,-5.764,-5.7654,-5.7666,-5.7705,-5.772,-5.7542,-5.7542,-5.7542,0,-5.7286,-5.7338,-5.7313,-5.7356,-5.737,-5.7325,-5.7377,-5.7385,-5.7402,-5.7413,-5.7382,-5.7443,-5.7445,-5.7512,-5.7541,-5.7552,-5.7564,-5.7531,-5.7654,-5.7666,-5.7677,-5.7714,-5.7729,-5.7547,-5.7546,-5.7546,-5.7545,0,-5.7412,-5.745,-5.7491,-5.751,-5.7529,-5.7577,-5.7558,-5.7581,-5.756,-5.7551,-5.7606,-5.7608,-5.7632,-5.7648,-5.7627,-5.7712,-5.7694,-5.766,-5.7603,-5.7699,-5.7733,-5.7747,-5.7554,-5.7552,-5.7551,-5.755,0,0,-5.7565,-5.7572,-5.7587,-5.7595,-5.7604,-5.7632,-5.7678,-5.7703,-5.7722,-5.7737,-5.7773,-5.7817,-5.7785,-5.7797,-5.7778,-5.7813,-5.7902,-5.7773,-5.7773,-5.7794,-5.7994,-5.8017,-5.8034,-5.7882,-5.7884,-5.7886,-5.7992,0,-5.7671,-5.775,-5.773,-5.7808,-5.7841,-5.78,-5.784,-5.785,-5.7844,-5.7871,-5.7864,-5.7895,-5.7852,-5.7859,-5.7891,-5.7884,-5.7941,-5.7877,-5.7913,-5.7914,-5.7908,-5.8052,-5.8077,-5.8176,-5.8005,-5.8008,-5.8009,0,-5.7804,-5.7825,-5.7907,-5.7911,-5.7924,-5.796,-5.7982,-5.8009,-5.8019,-5.8012,-5.8027,-5.8001,-5.8046,-5.7993,-5.8053,-5.801,-5.8024,-5.8023,-5.8026,-5.8025,-5.7965,-5.8052,-5.8208,-5.8221,-5.8031,-5.8029,-5.8027,0,-5.7905,-5.7953,-5.8008,-5.8017,-5.8024,-5.805,-5.8054,-5.8061,-5.8078,-5.8097,-5.8107,-5.8132,-5.8144,-5.8163,-5.8144,-5.8107,-5.8207,-5.8152,-5.8201,-5.8201,-5.822,-5.8218,-5.8376,-5.8236,-5.8235,-5.8235,-5.8235,0,-5.8023,-5.8074,-5.8053,-5.8087,-5.8143,-5.812,-5.8175,-5.8175,-5.8182,-5.8214,-5.8181,-5.8211,-5.8187,-5.8215,-5.8201,-5.8252,-5.8259,-5.8253,-5.8248,-5.8254,-5.8254,-5.826,-5.8251,-5.8239,-5.8238,-5.8237,-5.8237,0,-5.8142,-5.8131,-5.8188,-5.8191,-5.8193,-5.8233,-5.8235,-5.8266,-5.8259,-5.83,-5.8308,-5.8297,-5.8328,-5.8313,-5.8346,-5.8336,-5.8402,-5.8389,-5.8398,-5.8393,-5.8442,-5.8436,-5.8606,-5.8626,-5.8476,-5.8477,-5.8478,0,-5.8216,-5.8255,-5.8262,-5.8282,-5.8289,-5.8321,-5.8338,-5.8318,-5.8337,-5.8353,-5.8381,-5.8411,-5.8432,-5.8485,-5.8479,-5.8504,-5.849,-5.8548,-5.8493,-5.8498,-5.8487,-5.8483,-5.8486,-5.8557,-5.8559,-5.8561,-5.8562,0,-5.8349,-5.8342,-5.8369,-5.8394,-5.8416,-5.8435,-5.845,-5.8468,-5.8449,-5.8472,-5.8505,-5.8522,-5.8557,-5.8585,-5.8607,-5.861,-5.8582,-5.858,-5.8592,-5.8596,-5.8599,-5.8595,-5.8424,-5.8575,-5.8574,-5.8573,-5.8572,-5.8571,-5.8446,-5.8478,-5.8488,-5.8519,-5.853,-5.8546,-5.8574,-5.8572,-5.8599,-5.8626,-5.8613,-5.8651,-5.8661,-5.8688,-5.8695,-5.8723,-5.87,-5.8718,-5.8722,-5.8726,-5.8731,-5.8598,-5.8728,-5.8727,-5.8727,-5.8727,-5.8726,0,-5.8574,-5.858,-5.8609,-5.8632,-5.8657,-5.8632,-5.8648,-5.8669,-5.8703,-5.8716,-5.8739,-5.8776,-5.8804,-5.8802,-5.8828,-5.8851,-5.8839,-5.8858,-5.8854,-5.8855,-5.8752,-5.8737,-5.8868,-5.8868,-5.8868,-5.8868,-5.8868,-5.8868,-5.8643,-5.8696,-5.8691,-5.8748,-5.8753,-5.879,-5.8801,-5.8816,-5.8825,-5.8869,-5.8893,-5.8892,-5.8898,-5.8924,-5.8949,-5.8947,-5.8957,-5.8981,-5.8974,-5.8877,-5.8863,-5.8849,-5.8835,-5.8984,-5.8984,-5.9075,-5.9075,-5.9076]},{"header":{"parameterUnit":"m.s-1","parameterCategory":1,"la1":30.2991,"la2":30.254,"lo1":-89.0895,"lo2":-89.0444,"dy":0.0017,"dx":0.0017,"nx":28,"ny":28,"refTime":"2024-04-15T03:00:00:Z","depth":0,"parameterNumber":3,"parameterNumberName":"V-component_of_WINDS"},"data":[0,0,0,0,0,0,0,0,0,0,0,0,0,0,0,0,0,0,0,0,0,0,0,0,0,0,0,0,0,0,0,0,0,0,0,0,0,0,0,0,0,0,0,0,0,0,0,0,0,0,0,0,0,0,0,0,0,0,4.4748,4.4749,0,4.4796,4.4796,4.4797,4.4839,4.484,4.484,4.4841,4.4886,4.4887,4.4888,0,0,0,0,0,0,0,0,0,0,0,0,0,4.4693,4.4693,4.4748,4.4749,4.475,4.4796,4.4796,4.4797,4.4839,4.484,4.484,4.4841,4.4886,4.4887,4.4888,0,0,0,0,0,0,0,0,0,0,0,0,0,4.4726,4.4694,4.4748,4.4776,4.4779,4.4796,4.4796,4.4797,4.4839,4.484,4.484,4.4841,4.4886,4.4887,4.4888,4.4879,0,0,4.4891,4.4892,0,0,0,0,0,0,0,0,4.4724,4.4728,4.4772,4.4774,4.4778,4.4812,4.4793,4.4825,4.4839,4.4816,4.4841,4.4842,4.4861,4.4864,4.4871,4.4882,4.4884,4.4891,4.4892,4.4892,4.4893,0,0,0,0,0,0,0,4.4722,4.4726,4.4767,4.4772,4.4776,4.4786,4.4791,4.48,4.4834,4.4818,4.4821,4.4827,4.4863,4.487,4.4872,4.4884,4.4891,4.4892,4.4893,4.4893,4.4891,4.4891,0,0,0,0,0,0,4.4715,4.4724,4.4766,4.4769,4.4752,4.4786,4.4792,4.48,4.4834,4.4839,4.4826,4.4828,4.4868,4.4871,4.4874,4.4868,4.4892,4.4893,4.4894,4.4892,4.4891,4.4891,0,0,0,0,0,0,4.4714,4.4719,4.4764,4.4747,4.4754,4.4786,4.4795,4.4801,4.4808,4.4839,4.4845,4.4827,4.4868,4.4873,4.4878,4.487,4.4894,4.4895,4.4893,4.4892,4.4891,4.4853,0,0,0,0,0,0,4.4712,4.4718,4.4715,4.4747,4.4754,4.4767,4.4794,4.4801,4.4811,4.4814,4.4842,4.4848,4.4869,4.4876,4.4879,4.4872,4.4896,4.4894,4.4892,4.4891,4.4856,4.4851,4.4848,0,0,0,0,0,4.471,4.4702,4.4715,4.472,4.4752,4.4767,4.4771,4.4797,4.481,4.4807,4.4828,4.4847,4.487,4.4877,4.488,4.4873,4.4895,4.4893,4.4891,4.4857,4.4852,4.4848,0,0,0,0,0,0,4.4667,4.4707,4.4721,4.4724,4.4742,4.4774,4.4772,4.479,4.4804,4.4807,4.4838,4.4844,4.4846,4.486,4.4867,4.4867,4.4885,4.4884,4.4858,4.4853,4.4849,4.4846,4.4897,0,0,0,0,0,4.4658,4.4668,4.4701,4.47,4.4708,4.4738,4.4746,4.4764,4.4784,4.4792,4.4812,4.483,4.4841,4.4848,4.486,4.4858,4.4865,4.4855,4.4851,4.4847,4.4846,4.4847,4.4843,4.4885,4.4885,4.4885,0,0,4.464,4.4662,4.4666,4.4692,4.4708,4.4717,4.4744,4.4752,4.4759,4.4792,4.48,4.4815,4.4837,4.4839,4.4841,4.485,4.4836,4.4845,4.4842,4.4843,4.4845,4.4841,4.4837,4.4884,4.4884,4.4884,0,0,4.461,4.4628,4.4629,4.4645,4.467,4.4691,4.4691,4.4721,4.4733,4.4741,4.4766,4.4774,4.4793,4.4808,4.4818,4.4795,4.4814,4.4798,4.4777,4.4778,4.4774,4.4771,4.4764,4.4761,4.4797,4.4797,4.4797,0,4.4583,4.4598,4.4627,4.4634,4.4645,4.4677,4.4679,4.4693,4.472,4.4726,4.4737,4.4762,4.4779,4.4786,4.478,4.4787,4.4788,4.4795,4.4773,4.477,4.4768,4.4761,4.4758,4.4795,4.4795,4.4795,4.4796,0,4.4564,4.4574,4.4572,4.4599,4.461,4.4614,4.4643,4.465,4.4668,4.4687,4.4695,4.4717,4.4734,4.4737,4.4754,4.4746,4.4752,4.4767,4.4786,4.4761,4.4755,4.4753,4.4792,4.4793,4.4794,4.4794,0,0,4.4508,4.4553,4.4551,4.4565,4.4595,4.4603,4.4608,4.4627,4.4633,4.465,4.4656,4.4672,4.4687,4.4698,4.4717,4.4717,4.4699,4.4733,4.4734,4.4726,4.4692,4.4681,4.4677,4.4712,4.4711,4.4711,4.4691,0,4.4484,4.4497,4.4524,4.4529,4.4539,4.457,4.4575,4.4594,4.4612,4.4622,4.4642,4.4653,4.4672,4.4679,4.4681,4.4701,4.4693,4.4703,4.4717,4.4717,4.4711,4.4674,4.4662,4.4642,4.4689,4.4688,4.4688,0,4.4458,4.4475,4.4481,4.4512,4.4517,4.4521,4.4541,4.4551,4.4573,4.4586,4.4599,4.4621,4.4628,4.4645,4.4656,4.4662,4.4669,4.468,4.468,4.4682,4.4701,4.4676,4.4636,4.4633,4.4685,4.4685,4.4685,0,4.4417,4.4442,4.4449,4.4459,4.4495,4.4498,4.4512,4.4536,4.4545,4.4562,4.4569,4.4586,4.4595,4.4608,4.4633,4.4643,4.4641,4.466,4.4652,4.4651,4.465,4.465,4.4611,4.4654,4.4654,4.4654,4.4654,0,4.4388,4.439,4.4432,4.4436,4.444,4.4471,4.4473,4.4491,4.4511,4.4519,4.4547,4.4553,4.4586,4.4597,4.4616,4.4623,4.4626,4.4637,4.4642,4.4635,4.4633,4.464,4.4642,4.4653,4.4653,4.4654,4.4654,0,4.4343,4.4371,4.4381,4.4415,4.4424,4.4425,4.4454,4.4459,4.4479,4.4489,4.4493,4.4524,4.4538,4.4564,4.4585,4.4598,4.46,4.4609,4.4593,4.4596,4.4587,4.4588,4.4552,4.4549,4.4593,4.4592,4.4592,0,4.4323,4.4326,4.436,4.4368,4.4383,4.4395,4.4406,4.4436,4.4446,4.4472,4.4474,4.449,4.4505,4.4525,4.4549,4.4566,4.4575,4.4562,4.4578,4.4571,4.4576,4.4576,4.4576,4.4558,4.4557,4.4557,4.4556,0,4.4284,4.4298,4.4313,4.4333,4.4345,4.4362,4.438,4.4384,4.4419,4.4428,4.4444,4.4455,4.4477,4.4493,4.4513,4.4528,4.4548,4.4551,4.455,4.4543,4.4534,4.4539,4.4584,4.4552,4.4552,4.4553,4.4553,4.4553,4.4251,4.4256,4.4281,4.4297,4.4314,4.4331,4.4338,4.4359,4.4373,4.4394,4.4411,4.4425,4.4448,4.4477,4.449,4.4501,4.4511,4.4509,4.4509,4.4508,4.4506,4.4532,4.4505,4.4505,4.4505,4.4506,4.4506,0,4.4215,4.4233,4.4247,4.4272,4.4285,4.4304,4.4325,4.4334,4.4346,4.4366,4.4381,4.4398,4.4414,4.444,4.4457,4.4461,4.4471,4.4465,4.4465,4.4468,4.4496,4.4495,4.4457,4.4457,4.4457,4.4457,4.4457,4.4457,4.4197,4.4206,4.4223,4.4241,4.4259,4.4274,4.4284,4.43,4.4316,4.4335,4.4349,4.4366,4.4388,4.4408,4.4423,4.443,4.4435,4.4427,4.4437,4.4462,4.4466,4.4471,4.447,4.4427,4.4427,4.4408,4.4408,4.4408]}]]